| time (UTC) | temp C | wind direction | speed KPH | gust KPH | rain 1hr cm | rain 24hr cm | rain mn cm | humidity % | barometer mb |
| 20260506211704 | 21 | 216 | 25.7 | 35.4 | 0.00 | 0.13 | 0.13 | 75 | 1006.7 |
| 20260506210704 | 21 | 219 | 22.5 | 32.2 | 0.00 | 0.13 | 0.13 | 76 | 1006.6 |
| 20260506210204 | 21 | 220 | 24.1 | 33.8 | 0.00 | 0.13 | 0.13 | 76 | 1006.6 |
| 20260506205704 | 21 | 222 | 24.1 | 32.2 | 0.00 | 0.13 | 0.13 | 77 | 1006.5 |
| 20260506205204 | 20 | 225 | 22.5 | 32.2 | 0.00 | 0.13 | 0.13 | 77 | 1006.5 |
| 20260506204704 | 20 | 218 | 22.5 | 32.2 | 0.00 | 0.13 | 0.13 | 76 | 1006.6 |
| 20260506204204 | 20 | 215 | 22.5 | 32.2 | 0.00 | 0.13 | 0.13 | 77 | 1006.5 |
| 20260506203204 | 20 | 219 | 24.1 | 32.2 | 0.00 | 0.13 | 0.13 | 78 | 1006.6 |
| 20260506202704 | 20 | 221 | 24.1 | 32.2 | 0.00 | 0.13 | 0.13 | 78 | 1006.6 |
| 20260506202204 | 20 | 216 | 27.4 | 35.4 | 0.00 | 0.13 | 0.13 | 77 | 1006.3 |
| 20260506201704 | 20 | 219 | 25.7 | 37.0 | 0.00 | 0.13 | 0.13 | 77 | 1006.4 |
| 20260506201204 | 20 | 211 | 27.4 | 35.4 | 0.00 | 0.13 | 0.13 | 77 | 1006.3 |
| 20260506200704 | 20 | 214 | 22.5 | 35.4 | 0.00 | 0.13 | 0.13 | 78 | 1006.5 |
| 20260506200204 | 20 | 207 | 27.4 | 35.4 | 0.00 | 0.13 | 0.13 | 77 | 1006.5 |
| 20260506195704 | 20 | 210 | 25.7 | 33.8 | 0.00 | 0.13 | 0.13 | 77 | 1006.6 |
| 20260506195204 | 20 | 224 | 25.7 | 32.2 | 0.00 | 0.13 | 0.13 | 77 | 1006.8 |
| 20260506194704 | 20 | 216 | 22.5 | 32.2 | 0.00 | 0.13 | 0.13 | 77 | 1006.9 |
| 20260506194204 | 20 | 215 | 25.7 | 35.4 | 0.00 | 0.13 | 0.13 | 77 | 1007.0 |
| 20260506193704 | 20 | 206 | 20.9 | 35.4 | 0.00 | 0.13 | 0.13 | 76 | 1007.0 |
| 20260506193204 | 20 | 211 | 24.1 | 32.2 | 0.00 | 0.13 | 0.13 | 77 | 1007.0 |
| 20260506192704 | 20 | 207 | 25.7 | 37.0 | 0.00 | 0.13 | 0.13 | 76 | 1006.9 |
| 20260506191704 | 20 | 203 | 25.7 | 32.2 | 0.00 | 0.13 | 0.13 | 77 | 1007.0 |
| 20260506191204 | 20 | 203 | 24.1 | 35.4 | 0.00 | 0.13 | 0.13 | 76 | 1007.2 |
| 20260506185704 | 20 | 201 | 20.9 | 29.0 | 0.00 | 0.13 | 0.13 | 77 | 1007.0 |
| 20260506185204 | 20 | 211 | 22.5 | 32.2 | 0.00 | 0.13 | 0.13 | 77 | 1007.2 |
| 20260506184704 | 20 | 208 | 22.5 | 33.8 | 0.00 | 0.13 | 0.13 | 77 | 1007.2 |
| 20260506184204 | 20 | 206 | 20.9 | 32.2 | 0.00 | 0.13 | 0.13 | 77 | 1007.3 |
| 20260506183704 | 20 | 208 | 25.7 | 37.0 | 0.00 | 0.13 | 0.13 | 77 | 1007.3 |
| 20260506183204 | 20 | 208 | 22.5 | 33.8 | 0.00 | 0.13 | 0.13 | 76 | 1007.6 |
| 20260506182704 | 20 | 203 | 25.7 | 41.8 | 0.00 | 0.13 | 0.13 | 76 | 1007.8 |
| 20260506182204 | 20 | 204 | 27.4 | 41.8 | 0.00 | 0.13 | 0.13 | 77 | 1007.9 |
| 20260506181704 | 20 | 213 | 29.0 | 38.6 | 0.00 | 0.13 | 0.13 | 78 | 1008.0 |
| 20260506181204 | 20 | 213 | 30.6 | 37.0 | 0.00 | 0.13 | 0.13 | 77 | 1007.9 |
| 20260506180704 | 20 | 211 | 32.2 | 41.8 | 0.00 | 0.13 | 0.13 | 80 | 1008.1 |
| 20260506180204 | 20 | 204 | 32.2 | 45.1 | 0.00 | 0.13 | 0.13 | 80 | 1008.0 |
| 20260506175704 | 20 | 202 | 27.4 | 33.8 | 0.00 | 0.13 | 0.13 | 79 | 1007.9 |
| 20260506175205 | 20 | 213 | 25.7 | 35.4 | 0.00 | 0.13 | 0.13 | 79 | 1008.2 |
| 20260506174704 | 20 | 208 | 32.2 | 41.8 | 0.00 | 0.13 | 0.13 | 80 | 1008.3 |
| 20260506174205 | 19 | 210 | 27.4 | 40.2 | 0.00 | 0.13 | 0.13 | 79 | 1008.2 |
| 20260506173704 | 19 | 211 | 29.0 | 45.1 | 0.00 | 0.13 | 0.13 | 80 | 1008.3 |
| 20260506173204 | 19 | 204 | 27.4 | 40.2 | 0.00 | 0.13 | 0.13 | 80 | 1008.3 |
| 20260506172704 | 19 | 207 | 25.7 | 40.2 | 0.00 | 0.13 | 0.13 | 80 | 1008.3 |
| 20260506171704 | 19 | 209 | 32.2 | 41.8 | 0.00 | 0.13 | 0.13 | 81 | 1008.1 |
| 20260506170704 | 18 | 206 | 27.4 | 40.2 | 0.03 | 0.13 | 0.13 | 82 | 1008.3 |
| 20260506170204 | 18 | 203 | 27.4 | 40.2 | 0.05 | 0.13 | 0.13 | 81 | 1008.4 |
| 20260506165704 | 18 | 200 | 32.2 | 41.8 | 0.05 | 0.13 | 0.13 | 80 | 1008.4 |
| 20260506165204 | 18 | 203 | 29.0 | 48.3 | 0.05 | 0.13 | 0.13 | 81 | 1008.2 |
| 20260506164705 | 18 | 205 | 32.2 | 45.1 | 0.05 | 0.13 | 0.13 | 82 | 1008.2 |
| 20260506164204 | 18 | 208 | 30.6 | 41.8 | 0.05 | 0.13 | 0.13 | 81 | 1008.3 |
| 20260506163704 | 18 | 204 | 25.7 | 40.2 | 0.05 | 0.13 | 0.13 | 83 | 1008.5 |
| 20260506163204 | 18 | 211 | 29.0 | 40.2 | 0.05 | 0.13 | 0.13 | 85 | 1008.5 |
| 20260506162704 | 18 | 213 | 25.7 | 37.0 | 0.05 | 0.13 | 0.13 | 85 | 1008.5 |
| 20260506162204 | 17 | 199 | 24.1 | 35.4 | 0.05 | 0.13 | 0.13 | 84 | 1008.5 |
| 20260506161704 | 17 | 204 | 25.7 | 37.0 | 0.05 | 0.13 | 0.13 | 84 | 1008.6 |
| 20260506161204 | 17 | 207 | 25.7 | 46.7 | 0.08 | 0.13 | 0.13 | 83 | 1008.7 |
| 20260506160704 | 18 | 194 | 25.7 | 38.6 | 0.05 | 0.10 | 0.10 | 83 | 1008.7 |
| 20260506160204 | 18 | 206 | 30.6 | 48.3 | 0.03 | 0.08 | 0.08 | 82 | 1008.7 |
| 20260506155704 | 18 | 196 | 20.9 | 32.2 | 0.05 | 0.08 | 0.08 | 83 | 1008.7 |
| 20260506155204 | 18 | 318 | 19.3 | 33.8 | 0.05 | 0.08 | 0.08 | 84 | 1008.9 |
| 20260506154704 | 17 | 205 | 24.1 | 37.0 | 0.08 | 0.08 | 0.08 | 83 | 1009.2 |
| 20260506154204 | 17 | 325 | 19.3 | 27.4 | 0.08 | 0.08 | 0.08 | 82 | 1009.2 |
| 20260506153204 | 17 | 206 | 19.3 | 32.2 | 0.08 | 0.08 | 0.08 | 82 | 1009.5 |
| 20260506152704 | 17 | 253 | 20.9 | 29.0 | 0.08 | 0.08 | 0.08 | 81 | 1009.6 |
| 20260506151704 | 18 | 216 | 17.7 | 32.2 | 0.08 | 0.08 | 0.08 | 81 | 1009.5 |
| 20260506151204 | 18 | 244 | 19.3 | 25.7 | 0.05 | 0.05 | 0.05 | 80 | 1009.5 |
| 20260506150704 | 18 | 208 | 19.3 | 33.8 | 0.05 | 0.05 | 0.05 | 80 | 1009.6 |
| 20260506150204 | 18 | 215 | 20.9 | 29.0 | 0.05 | 0.05 | 0.05 | 79 | 1009.6 |
| 20260506145204 | 18 | 325 | 22.5 | 29.0 | 0.03 | 0.03 | 0.03 | 78 | 1009.7 |
| 20260506144704 | 18 | 234 | 20.9 | 25.7 | 0.00 | 0.00 | 0.00 | 78 | 1009.6 |
| 20260506144205 | 18 | 218 | 19.3 | 32.2 | 0.00 | 0.00 | 0.00 | 77 | 1009.5 |
| 20260506143704 | 18 | 6 | 20.9 | 27.4 | 0.00 | 0.00 | 0.00 | 77 | 1009.6 |
| 20260506143204 | 19 | 332 | 20.9 | 27.4 | 0.00 | 0.00 | 0.00 | 77 | 1009.6 |
| 20260506142704 | 19 | 220 | 19.3 | 29.0 | 0.00 | 0.00 | 0.00 | 75 | 1009.7 |
| 20260506142204 | 19 | 271 | 22.5 | 33.8 | 0.00 | 0.00 | 0.00 | 74 | 1009.6 |
| 20260506141704 | 19 | 233 | 19.3 | 27.4 | 0.00 | 0.00 | 0.00 | 72 | 1009.5 |
| 20260506140704 | 19 | 225 | 20.9 | 27.4 | 0.00 | 0.00 | 0.00 | 71 | 1009.6 |
| 20260506140204 | 19 | 257 | 22.5 | 33.8 | 0.00 | 0.00 | 0.00 | 71 | 1009.6 |
| 20260506135704 | 19 | 228 | 24.1 | 32.2 | 0.00 | 0.00 | 0.00 | 71 | 1009.6 |
| 20260506134704 | 19 | 261 | 20.9 | 29.0 | 0.00 | 0.00 | 0.00 | 71 | 1009.5 |
| 20260506133704 | 19 | 303 | 20.9 | 33.8 | 0.00 | 0.00 | 0.00 | 72 | 1009.5 |
| 20260506133204 | 19 | 207 | 25.7 | 40.2 | 0.00 | 0.00 | 0.00 | 72 | 1009.5 |
| 20260506132704 | 19 | 223 | 20.9 | 32.2 | 0.00 | 0.00 | 0.00 | 72 | 1009.4 |
| 20260506132204 | 19 | 184 | 20.9 | 33.8 | 0.00 | 0.00 | 0.00 | 71 | 1009.4 |
| 20260506131704 | 19 | 208 | 20.9 | 33.8 | 0.00 | 0.00 | 0.00 | 71 | 1009.5 |
| 20260506131204 | 19 | 211 | 20.9 | 37.0 | 0.00 | 0.00 | 0.00 | 71 | 1009.6 |
| 20260506130704 | 19 | 195 | 20.9 | 32.2 | 0.00 | 0.00 | 0.00 | 71 | 1009.5 |
| 20260506130203 | 18 | 207 | 20.9 | 29.0 | 0.00 | 0.00 | 0.00 | 71 | 1009.5 |
| 20260506125703 | 18 | 326 | 20.9 | 33.8 | 0.00 | 0.00 | 0.00 | 72 | 1009.5 |
| 20260506125204 | 18 | 261 | 19.3 | 41.8 | 0.00 | 0.00 | 0.00 | 72 | 1009.5 |
| 20260506124704 | 18 | 233 | 17.7 | 27.4 | 0.00 | 0.00 | 0.00 | 72 | 1009.5 |
| 20260506124203 | 18 | 242 | 22.5 | 32.2 | 0.00 | 0.00 | 0.00 | 71 | 1009.5 |
| 20260506123204 | 18 | 212 | 22.5 | 32.2 | 0.00 | 0.00 | 0.00 | 71 | 1009.6 |
| 20260506122704 | 18 | 195 | 22.5 | 32.2 | 0.00 | 0.00 | 0.00 | 72 | 1009.7 |
| 20260506122204 | 18 | 210 | 25.7 | 33.8 | 0.00 | 0.00 | 0.00 | 71 | 1009.7 |
| 20260506121704 | 18 | 204 | 22.5 | 33.8 | 0.00 | 0.00 | 0.00 | 72 | 1009.7 |
| 20260506121204 | 18 | 217 | 20.9 | 37.0 | 0.00 | 0.00 | 0.00 | 71 | 1009.8 |
| 20260506120704 | 18 | 8 | 20.9 | 37.0 | 0.00 | 0.00 | 0.00 | 71 | 1009.7 |
| 20260506120204 | 18 | 171 | 22.5 | 37.0 | 0.00 | 0.00 | 0.00 | 71 | 1009.7 |
| 20260506115704 | 18 | 236 | 22.5 | 38.6 | 0.00 | 0.00 | 0.00 | 72 | 1009.8 |
| 20260506115203 | 18 | 223 | 22.5 | 38.6 | 0.00 | 0.00 | 0.00 | 71 | 1009.8 |
| 20260506114703 | 19 | 3 | 25.7 | 37.0 | 0.00 | 0.00 | 0.00 | 71 | 1009.6 |
| 20260506114204 | 19 | 235 | 22.5 | 35.4 | 0.00 | 0.00 | 0.00 | 71 | 1009.6 |
| 20260506113703 | 18 | 353 | 19.3 | 35.4 | 0.00 | 0.00 | 0.00 | 71 | 1009.6 |
| 20260506113204 | 18 | 174 | 22.5 | 35.4 | 0.00 | 0.00 | 0.00 | 72 | 1009.4 |
| 20260506112704 | 18 | 3 | 20.9 | 37.0 | 0.00 | 0.00 | 0.00 | 72 | 1009.4 |
| 20260506112203 | 18 | 186 | 19.3 | 33.8 | 0.00 | 0.00 | 0.00 | 73 | 1009.5 |
| 20260506111704 | 18 | 159 | 22.5 | 32.2 | 0.00 | 0.00 | 0.00 | 74 | 1009.5 |
| 20260506111204 | 18 | 14 | 20.9 | 33.8 | 0.00 | 0.00 | 0.00 | 75 | 1009.4 |
| 20260506110704 | 18 | 198 | 22.5 | 32.2 | 0.00 | 0.00 | 0.00 | 74 | 1009.4 |
| 20260506110204 | 18 | 217 | 19.3 | 24.1 | 0.00 | 0.00 | 0.00 | 75 | 1009.3 |
| 20260506105704 | 18 | 212 | 19.3 | 27.4 | 0.00 | 0.00 | 0.00 | 75 | 1009.3 |
| 20260506105204 | 18 | 176 | 19.3 | 27.4 | 0.00 | 0.00 | 0.00 | 74 | 1009.3 |
| 20260506104204 | 18 | 343 | 19.3 | 29.0 | 0.00 | 0.00 | 0.00 | 75 | 1009.2 |
| 20260506103204 | 18 | 216 | 22.5 | 35.4 | 0.00 | 0.00 | 0.00 | 76 | 1009.4 |
| 20260506102704 | 18 | 251 | 20.9 | 33.8 | 0.00 | 0.00 | 0.00 | 76 | 1009.3 |
| 20260506102203 | 17 | 186 | 19.3 | 32.2 | 0.00 | 0.00 | 0.00 | 76 | 1009.1 |
| 20260506101704 | 17 | 173 | 19.3 | 29.0 | 0.00 | 0.00 | 0.00 | 76 | 1009.1 |
| 20260506101204 | 17 | 185 | 20.9 | 32.2 | 0.00 | 0.00 | 0.00 | 76 | 1009.2 |
| 20260506100204 | 18 | 180 | 22.5 | 41.8 | 0.00 | 0.00 | 0.00 | 76 | 1009.4 |
| 20260506095706 | 18 | 196 | 22.5 | 35.4 | 0.00 | 0.00 | 0.00 | 76 | 1009.4 |
| 20260506095205 | 18 | 216 | 20.9 | 32.2 | 0.00 | 0.00 | 0.00 | 76 | 1009.4 |
| 20260506094205 | 18 | 199 | 22.5 | 33.8 | 0.00 | 0.00 | 0.00 | 76 | 1009.3 |
| 20260506093705 | 18 | 191 | 24.1 | 41.8 | 0.00 | 0.00 | 0.00 | 76 | 1009.5 |
| 20260506093206 | 18 | 192 | 22.5 | 35.4 | 0.00 | 0.00 | 0.00 | 76 | 1009.3 |
| 20260506092706 | 18 | 212 | 22.5 | 35.4 | 0.00 | 0.00 | 0.00 | 76 | 1009.3 |
| 20260506092205 | 18 | 200 | 24.1 | 37.0 | 0.00 | 0.00 | 0.00 | 76 | 1009.3 |
| 20260506091705 | 18 | 221 | 22.5 | 35.4 | 0.00 | 0.00 | 0.00 | 76 | 1009.4 |
| 20260506091205 | 18 | 195 | 22.5 | 35.4 | 0.00 | 0.00 | 0.00 | 76 | 1009.4 |
| 20260506090705 | 18 | 190 | 20.9 | 35.4 | 0.00 | 0.00 | 0.00 | 76 | 1009.3 |
| 20260506090205 | 18 | 201 | 22.5 | 38.6 | 0.00 | 0.00 | 0.00 | 76 | 1009.3 |
| 20260506085706 | 18 | 346 | 22.5 | 37.0 | 0.00 | 0.00 | 0.00 | 76 | 1009.3 |
| 20260506085206 | 18 | 212 | 19.3 | 29.0 | 0.00 | 0.00 | 0.00 | 76 | 1009.3 |
| 20260506084705 | 18 | 194 | 20.9 | 32.2 | 0.00 | 0.00 | 0.00 | 75 | 1009.4 |
| 20260506083706 | 18 | 201 | 22.5 | 33.8 | 0.00 | 0.00 | 0.00 | 75 | 1009.3 |
| 20260506083206 | 18 | 203 | 20.9 | 33.8 | 0.00 | 0.00 | 0.00 | 76 | 1009.3 |
| 20260506082706 | 18 | 186 | 22.5 | 32.2 | 0.00 | 0.00 | 0.00 | 75 | 1009.3 |
| 20260506081705 | 18 | 254 | 24.1 | 37.0 | 0.00 | 0.00 | 0.00 | 76 | 1009.2 |
| 20260506081205 | 18 | 201 | 20.9 | 37.0 | 0.00 | 0.00 | 0.00 | 75 | 1009.2 |
| 20260506080706 | 18 | 207 | 20.9 | 32.2 | 0.00 | 0.00 | 0.00 | 75 | 1009.3 |
| 20260506072705 | 18 | 219 | 22.5 | 37.0 | 0.00 | 0.00 | 0.00 | 75 | 1009.6 |
| 20260506072206 | 18 | 200 | 22.5 | 38.6 | 0.00 | 0.00 | 0.00 | 75 | 1009.6 |
| 20260506071705 | 18 | 195 | 22.5 | 37.0 | 0.00 | 0.00 | 0.00 | 75 | 1009.6 |
| 20260506071206 | 18 | 200 | 24.1 | 33.8 | 0.00 | 0.00 | 0.00 | 75 | 1009.6 |
| 20260506070706 | 18 | 204 | 25.7 | 41.8 | 0.00 | 0.00 | 0.00 | 74 | 1009.7 |
| 20260506070206 | 18 | 203 | 24.1 | 37.0 | 0.00 | 0.00 | 0.00 | 74 | 1009.6 |
| 20260506062206 | 19 | 180 | 20.9 | 37.0 | 0.00 | 0.00 | 0.00 | 73 | 1009.7 |
| 20260506061706 | 19 | 206 | 24.1 | 41.8 | 0.00 | 0.00 | 0.00 | 73 | 1009.7 |
| 20260506061205 | 19 | 195 | 24.1 | 45.1 | 0.00 | 0.00 | 0.00 | 73 | 1009.7 |
| 20260506060706 | 19 | 201 | 25.7 | 37.0 | 0.00 | 0.00 | 0.00 | 73 | 1009.7 |
| 20260506060206 | 19 | 209 | 22.5 | 38.6 | 0.00 | 0.00 | 0.00 | 73 | 1009.7 |
| 20260506051205 | 20 | 193 | 27.4 | 41.8 | 0.00 | 0.00 | 0.00 | 71 | 1010.2 |
| 20260506050706 | 20 | 202 | 22.5 | 48.3 | 0.00 | 0.00 | 0.00 | 71 | 1010.1 |
| 20260506050206 | 20 | 201 | 22.5 | 41.8 | 0.00 | 0.00 | 0.00 | 71 | 1010.1 |
| 20260506044706 | 20 | 209 | 20.9 | 33.8 | 0.00 | 0.00 | 0.00 | 70 | 1010.2 |
| 20260506044205 | 20 | 192 | 27.4 | 37.0 | 0.00 | 0.00 | 0.00 | 70 | 1010.2 |
| 20260506043705 | 20 | 212 | 22.5 | 35.4 | 0.00 | 0.00 | 0.00 | 70 | 1010.2 |
| 20260506043205 | 20 | 205 | 22.5 | 32.2 | 0.00 | 0.00 | 0.00 | 71 | 1010.1 |
| 20260506042705 | 20 | 211 | 22.5 | 40.2 | 0.00 | 0.00 | 0.00 | 71 | 1010.2 |
| 20260506042205 | 20 | 207 | 22.5 | 33.8 | 0.00 | 0.00 | 0.00 | 72 | 1010.2 |
| 20260506041705 | 20 | 212 | 19.3 | 32.2 | 0.00 | 0.00 | 0.00 | 71 | 1010.1 |
| 20260506040705 | 20 | 189 | 19.3 | 32.2 | 0.00 | 0.00 | 0.00 | 71 | 1010.2 |
| 20260506040205 | 20 | 209 | 19.3 | 25.7 | 0.00 | 0.00 | 0.00 | 71 | 1010.2 |
| 20260506035706 | 20 | 191 | 19.3 | 35.4 | 0.00 | 0.00 | 0.00 | 69 | 1010.1 |
| 20260506035205 | 20 | 205 | 22.5 | 38.6 | 0.00 | 0.00 | 0.00 | 69 | 1010.0 |
| 20260506034705 | 20 | 358 | 22.5 | 32.2 | 0.00 | 0.00 | 0.00 | 69 | 1010.0 |
| 20260506034205 | 20 | 231 | 20.9 | 32.2 | 0.00 | 0.00 | 0.00 | 68 | 1010.0 |
| 20260506033705 | 20 | 13 | 19.3 | 32.2 | 0.00 | 0.00 | 0.00 | 67 | 1009.9 |
| 20260506033205 | 20 | 11 | 20.9 | 32.2 | 0.00 | 0.00 | 0.00 | 67 | 1009.8 |
| 20260506032705 | 20 | 333 | 20.9 | 40.2 | 0.00 | 0.00 | 0.00 | 66 | 1009.8 |
| 20260506032205 | 20 | 341 | 17.7 | 35.4 | 0.00 | 0.00 | 0.00 | 66 | 1009.9 |
| 20260506031706 | 20 | 340 | 19.3 | 29.0 | 0.00 | 0.00 | 0.00 | 66 | 1009.9 |
| 20260506031206 | 20 | 9 | 20.9 | 35.4 | 0.00 | 0.00 | 0.00 | 65 | 1009.9 |
| 20260506030706 | 20 | 59 | 19.3 | 32.2 | 0.00 | 0.00 | 0.00 | 66 | 1009.9 |
| 20260506030205 | 20 | 4 | 19.3 | 25.7 | 0.00 | 0.00 | 0.00 | 65 | 1010.0 |
| 20260506025205 | 20 | 23 | 20.9 | 32.2 | 0.00 | 0.00 | 0.00 | 65 | 1010.1 |
| 20260506024705 | 20 | 5 | 19.3 | 27.4 | 0.00 | 0.00 | 0.00 | 64 | 1010.0 |
| 20260506024205 | 20 | 95 | 20.9 | 35.4 | 0.00 | 0.00 | 0.00 | 64 | 1010.1 |
| 20260506023706 | 20 | 1 | 19.3 | 32.2 | 0.00 | 0.00 | 0.00 | 64 | 1010.1 |
| 20260506022705 | 20 | 70 | 17.7 | 33.8 | 0.00 | 0.00 | 0.00 | 63 | 1010.0 |
| 20260506022205 | 20 | 340 | 16.1 | 27.4 | 0.00 | 0.00 | 0.00 | 64 | 1010.0 |
| 20260506021705 | 21 | 248 | 19.3 | 33.8 | 0.00 | 0.00 | 0.00 | 63 | 1010.1 |
| 20260506021205 | 21 | 344 | 16.1 | 29.0 | 0.00 | 0.00 | 0.00 | 64 | 1010.0 |
| 20260506020705 | 21 | 354 | 19.3 | 32.2 | 0.00 | 0.00 | 0.00 | 63 | 1010.0 |
| 20260506020205 | 21 | 345 | 17.7 | 32.2 | 0.00 | 0.00 | 0.00 | 63 | 1009.9 |
| 20260506015705 | 21 | 21 | 19.3 | 32.2 | 0.00 | 0.00 | 0.00 | 63 | 1009.9 |
| 20260506015205 | 21 | 168 | 19.3 | 27.4 | 0.00 | 0.00 | 0.00 | 62 | 1009.9 |
| 20260506014705 | 21 | 186 | 20.9 | 27.4 | 0.00 | 0.00 | 0.00 | 63 | 1009.9 |
| 20260506013706 | 21 | 0 | 19.3 | 25.7 | 0.00 | 0.00 | 0.00 | 62 | 1009.8 |
| 20260506013206 | 21 | 178 | 19.3 | 32.2 | 0.00 | 0.00 | 0.00 | 63 | 1009.8 |
| 20260506012205 | 21 | 4 | 17.7 | 29.0 | 0.00 | 0.00 | 0.00 | 62 | 1009.8 |
| 20260506011705 | 21 | 7 | 19.3 | 29.0 | 0.00 | 0.00 | 0.00 | 62 | 1009.6 |
| 20260506011205 | 21 | 311 | 19.3 | 29.0 | 0.00 | 0.00 | 0.00 | 61 | 1009.6 |
| 20260506010705 | 21 | 330 | 16.1 | 24.1 | 0.00 | 0.00 | 0.00 | 61 | 1009.5 |
| 20260506010205 | 21 | 336 | 16.1 | 25.7 | 0.00 | 0.00 | 0.00 | 61 | 1009.4 |
| 20260506005705 | 21 | 179 | 16.1 | 32.2 | 0.00 | 0.00 | 0.00 | 60 | 1009.4 |
| 20260506004706 | 21 | 12 | 19.3 | 32.2 | 0.00 | 0.00 | 0.00 | 59 | 1009.2 |
| 20260506003706 | 22 | 354 | 16.1 | 32.2 | 0.00 | 0.00 | 0.00 | 58 | 1009.0 |
| 20260506003206 | 22 | 204 | 16.1 | 29.0 | 0.00 | 0.00 | 0.00 | 58 | 1008.9 |
| 20260506002205 | 22 | 8 | 17.7 | 32.2 | 0.00 | 0.00 | 0.00 | 57 | 1008.8 |
| 20260506001205 | 22 | 337 | 16.1 | 29.0 | 0.00 | 0.00 | 0.00 | 56 | 1008.9 |
| 20260506000706 | 22 | 225 | 16.1 | 27.4 | 0.00 | 0.00 | 0.00 | 55 | 1008.8 |
| 20260506000206 | 22 | 188 | 14.5 | 24.1 | 0.00 | 0.00 | 0.00 | 56 | 1008.7 |
| 20260505235705 | 22 | 336 | 16.1 | 25.7 | 0.00 | 0.00 | 0.00 | 56 | 1008.8 |
| 20260505235206 | 22 | 181 | 16.1 | 22.5 | 0.00 | 0.00 | 0.00 | 55 | 1008.6 |
| 20260505234705 | 23 | 212 | 19.3 | 29.0 | 0.00 | 0.00 | 0.00 | 54 | 1008.6 |
| 20260505234206 | 23 | 287 | 16.1 | 24.1 | 0.00 | 0.00 | 0.00 | 54 | 1008.6 |
| 20260505233705 | 23 | 168 | 11.3 | 32.2 | 0.00 | 0.00 | 0.00 | 55 | 1008.5 |
| 20260505233205 | 23 | 142 | 9.7 | 25.7 | 0.00 | 0.00 | 0.00 | 53 | 1008.4 |
| 20260505232706 | 23 | 181 | 14.5 | 25.7 | 0.00 | 0.00 | 0.00 | 54 | 1008.5 |
| 20260505232205 | 23 | 159 | 14.5 | 24.1 | 0.00 | 0.00 | 0.00 | 54 | 1008.5 |
| 20260505231705 | 23 | 155 | 16.1 | 24.1 | 0.00 | 0.00 | 0.00 | 54 | 1008.5 |
| 20260505231205 | 23 | 158 | 11.3 | 22.5 | 0.00 | 0.00 | 0.00 | 53 | 1008.5 |
| 20260505230705 | 23 | 173 | 11.3 | 19.3 | 0.00 | 0.00 | 0.00 | 53 | 1008.5 |
| 20260505230205 | 23 | 222 | 11.3 | 22.5 | 0.00 | 0.00 | 0.00 | 53 | 1008.5 |
| 20260505224705 | 23 | 203 | 12.9 | 24.1 | 0.00 | 0.00 | 0.00 | 53 | 1008.4 |
| 20260505224205 | 23 | 178 | 14.5 | 22.5 | 0.00 | 0.00 | 0.00 | 51 | 1008.5 |
| 20260505223705 | 23 | 24 | 14.5 | 27.4 | 0.00 | 0.00 | 0.00 | 52 | 1008.5 |
| 20260505223205 | 23 | 165 | 14.5 | 27.4 | 0.00 | 0.00 | 0.00 | 51 | 1008.4 |
| 20260505222705 | 23 | 186 | 16.1 | 27.4 | 0.00 | 0.00 | 0.00 | 52 | 1008.4 |
| 20260505222205 | 24 | 3 | 16.1 | 33.8 | 0.00 | 0.00 | 0.00 | 51 | 1008.5 |
| 20260505221705 | 24 | 38 | 12.9 | 22.5 | 0.00 | 0.00 | 0.00 | 52 | 1008.6 |
| 20260505221205 | 24 | 358 | 19.3 | 32.2 | 0.00 | 0.00 | 0.00 | 50 | 1008.5 |
| 20260505220705 | 24 | 248 | 16.1 | 32.2 | 0.00 | 0.00 | 0.00 | 50 | 1008.5 |
| 20260505220205 | 24 | 170 | 16.1 | 24.1 | 0.00 | 0.00 | 0.00 | 49 | 1008.4 |
| 20260505215706 | 25 | 300 | 20.9 | 27.4 | 0.00 | 0.00 | 0.00 | 49 | 1008.4 |
| 20260505215205 | 25 | 247 | 16.1 | 22.5 | 0.00 | 0.00 | 0.00 | 49 | 1008.5 |
| 20260505214704 | 25 | 103 | 14.5 | 25.7 | 0.00 | 0.00 | 0.00 | 49 | 1008.5 |
| 20260505214205 | 25 | 198 | 16.1 | 29.0 | 0.00 | 0.00 | 0.00 | 49 | 1008.5 |
| 20260505213705 | 25 | 253 | 19.3 | 27.4 | 0.00 | 0.00 | 0.00 | 49 | 1008.4 |
| 20260505212704 | 25 | 305 | 19.3 | 29.0 | 0.00 | 0.00 | 0.00 | 47 | 1008.3 |
| 20260505212205 | 26 | 355 | 19.3 | 27.4 | 0.00 | 0.00 | 0.00 | 48 | 1008.3 |